Temp
-11 -11 -11 -11 -11 -11 -11 -11 -11 -11 -11 -11 -11 -12 -12 -12 -12 -12 -13 -13 -14 -14 -14 -14 -16 -18 -18 -19 -21 -21 -21 -21 -22 -22 -22 -22 -22 -21 -19 -17 -15 -15 -13
-11 -11 -11 -11 -11 -11 -11 -12 -12 -12 -11 -11 -12 -12 -12 -12 -12 -13 -13 -14 -14 -14 -14 -15 -17 -19 -19 -20 -21 -21 -21 -22 -21 -21 -22 -21 -21 -20 -19 -17 -17 -15 -14
-11 -11 -11 -12 -12 -12 -12 -12 -12 -12 -12 -12 -12 -12 -13 -13 -13 -13 -13 -14 -14 -14 -14 -15 -17 -19 -19 -20 -21 -21 -21 -21 -21 -22 -22 -21 -21 -19 -18 -17 -16 -14 -14
-12 -12 -12 -12 -12 -12 -12 -12 -12 -12 -12 -12 -12 -13 -13 -13 -13 -13 -13 -14 -14 -14 -15 -16 -18 -19 -19 -20 -21 -21 -21 -21 -21 -22 -21 -21 -20 -19 -17 -16 -15 -15 -14
-12 -12 -12 -12 -12 -12 -12 -12 -12 -12 -12 -12 -13 -13 -13 -13 -13 -13 -14 -14 -14 -14 -15 -17 -18 -19 -20 -20 -20 -21 -21 -21 -21 -21 -21 -21 -19 -18 -17 -18 -16 -15 -14
-12 -12 -12 -13 -13 -13 -13 -12 -12 -12 -12 -12 -13 -13 -13 -13 -13 -13 -14 -14 -14 -14 -16 -18 -19 -19 -20 -20 -20 -21 -20 -21 -21 -20 -21 -20 -19 -18 -17 -17 -16 -16 -15
-13 -13 -13 -13 -13 -13 -13 -13 -13 -12 -13 -13 -13 -13 -13 -13 -13 -14 -14 -14 -14 -14 -16 -18 -19 -20 -20 -20 -20 -21 -20 -20 -20 -20 -20 -19 -19 -19 -18 -16 -17 -16 -14
-13 -13 -13 -13 -13 -13 -13 -13 -13 -13 -13 -13 -13 -13 -13 -13 -14 -14 -14 -14 -14 -15 -17 -18 -19 -20 -20 -20 -20 -20 -20 -20 -19 -20 -20 -19 -19 -19 -17 -17 -15 -14 -14
-14 -14 -14 -13 -13 -14 -14 -13 -13 -13 -13 -13 -13 -14 -13 -14 -14 -14 -14 -14 -14 -15 -17 -18 -19 -20 -21 -20 -20 -20 -20 -20 -19 -19 -19 -18 -19 -18 -17 -16 -16 -14 -13
-14 -14 -13 -13 -14 -14 -14 -13 -13 -13 -13 -13 -14 -14 -14 -14 -14 -14 -14 -14 -14 -16 -17 -19 -19 -20 -21 -20 -20 -20 -20 -19 -19 -19 -19 -19 -18 -18 -17 -16 -16 -15 -14
-14 -13 -13 -14 -14 -14 -14 -14 -14 -13 -13 -14 -14 -14 -14 -14 -14 -14 -14 -15 -15 -16 -18 -18 -19 -21 -22 -20 -20 -20 -19 -19 -18 -18 -18 -18 -18 -17 -17 -16 -15 -14 -13
-13 -13 -14 -14 -14 -14 -14 -14 -14 -14 -14 -14 -14 -14 -14 -15 -14 -14 -14 -15 -16 -17 -18 -19 -20 -21 -21 -20 -20 -20 -19 -18 -18 -18 -17 -18 -18 -17 -17 -16 -15 -15 -14
-14 -14 -14 -14 -14 -14 -14 -14 -14 -14 -14 -14 -14 -14 -15 -15 -14 -14 -14 -15 -17 -17 -19 -19 -20 -20 -20 -20 -20 -20 -19 -18 -18 -18 -18 -17 -17 -17 -16 -16 -16 -15 -14
-15 -15 -15 -15 -15 -15 -14 -14 -14 -14 -14 -14 -14 -15 -15 -15 -14 -14 -14 -16 -17 -18 -19 -19 -20 -20 -20 -20 -20 -20 -19 -19 -18 -18 -17 -17 -17 -16 -15 -15 -15 -14 -14
-15 -15 -15 -15 -15 -14 -14 -14 -14 -14 -14 -14 -15 -15 -15 -15 -15 -14 -15 -17 -18 -18 -19 -20 -20 -20 -20 -20 -20 -19 -20 -17 -17 -17 -17 -17 -16 -16 -16 -15 -15 -14 -13
-15 -15 -15 -15 -15 -14 -14 -14 -14 -14 -14 -15 -15 -15 -15 -15 -15 -14 -16 -17 -18 -18 -19 -20 -20 -20 -20 -20 -20 -19 -19 -17 -17 -17 -17 -16 -16 -16 -15 -15 -14 -13 -12
-15 -15 -15 -15 -15 -14 -14 -14 -15 -14 -15 -15 -15 -15 -15 -15 -14 -14 -16 -18 -18 -18 -20 -20 -20 -20 -20 -20 -19 -19 -19 -18 -17 -17 -16 -16 -16 -16 -16 -15 -14 -12 -12
-15 -14 -14 -15 -15 -15 -15 -15 -15 -15 -15 -15 -15 -15 -15 -15 -14 -14 -17 -18 -19 -18 -20 -20 -20 -20 -20 -20 -19 -19 -19 -17 -17 -16 -16 -16 -15 -16 -15 -13 -13 -12 -12
-15 -15 -15 -15 -15 -15 -15 -15 -15 -15 -15 -16 -16 -15 -15 -15 -14 -15 -17 -18 -18 -18 -20 -21 -20 -20 -20 -20 -19 -19 -19 -17 -17 -16 -16 -16 -15 -15 -15 -12 -12 -12 -12
-15 -15 -15 -15 -15 -15 -15 -15 -15 -15 -15 -16 -16 -15 -15 -15 -15 -16 -18 -18 -18 -18 -19 -20 -20 -20 -20 -20 -19 -19 -18 -16 -16 -16 -15 -16 -15 -15 -15 -12 -12 -12 -12
-15 -15 -15 -15 -15 -15 -15 -15 -15 -16 -16 -16 -15 -15 -15 -15 -15 -17 -18 -18 -19 -18 -19 -20 -19 -20 -20 -19 -19 -18 -17 -17 -16 -16 -16 -15 -15 -15 -14 -13 -12 -12 -12
-16 -16 -16 -16 -15 -16 -16 -16 -16 -16 -16 -16 -16 -15 -15 -15 -17 -18 -19 -19 -19 -18 -19 -20 -19 -20 -19 -19 -19 -19 -18 -17 -17 -15 -16 -15 -15 -14 -14 -13 -12 -13 -12
-16 -16 -16 -16 -16 -16 -16 -16 -16 -16 -16 -16 -15 -15 -15 -16 -17 -19 -19 -19 -19 -18 -20 -20 -19 -19 -19 -19 -19 -18 -18 -17 -17 -16 -16 -16 -16 -15 -14 -13 -13 -13 -13
-17 -17 -17 -16 -16 -16 -16 -17 -16 -16 -16 -16 -15 -15 -16 -17 -18 -19 -20 -19 -18 -19 -20 -20 -19 -19 -19 -19 -19 -18 -17 -17 -17 -16 -15 -15 -15 -15 -14 -13 -14 -13 -13
-16 -16 -16 -16 -17 -16 -17 -17 -16 -16 -16 -16 -15 -16 -17 -18 -19 -20 -20 -19 -19 -20 -21 -20 -19 -19 -19 -19 -19 -18 -17 -17 -16 -15 -16 -16 -15 -15 -14 -14 -14 -13 -13
-17 -17 -17 -17 -17 -17 -17 -17 -17 -16 -16 -16 -16 -17 -18 -19 -20 -20 -20 -19 -20 -21 -21 -20 -19 -19 -19 -19 -19 -18 -17 -16 -16 -16 -16 -15 -14 -15 -14 -13 -13 -13 -13
Height
5744 5744 5743 5742 5742 5741 5740 5739 5737 5734 5730 5726 5720 5715 5710 5704 5697 5690 5682 5673 5663 5650 5636 5622 5607 5593 5583 5571 5561 5555 5548 5538 5530 5534 5524 5516 5513 5517 5533 5560 5584 5610 5638
5733 5733 5732 5732 5731 5730 5729 5728 5726 5723 5719 5715 5709 5705 5698 5692 5686 5678 5669 5659 5649 5637 5623 5608 5592 5581 5570 5560 5552 5547 5540 5532 5523 5518 5513 5505 5502 5509 5525 5554 5579 5604 5632
5722 5721 5721 5720 5720 5719 5719 5718 5715 5712 5709 5704 5699 5693 5686 5680 5673 5666 5657 5647 5636 5623 5609 5594 5580 5570 5560 5550 5543 5539 5533 5526 5520 5512 5506 5499 5498 5507 5527 5549 5576 5598 5625
5709 5710 5709 5709 5708 5708 5708 5707 5704 5702 5698 5693 5688 5681 5675 5669 5662 5654 5645 5635 5624 5611 5596 5580 5568 5559 5550 5541 5535 5531 5526 5522 5515 5508 5503 5495 5495 5507 5525 5547 5568 5595 5621
5696 5698 5698 5698 5698 5698 5697 5696 5694 5690 5687 5682 5676 5670 5664 5657 5650 5643 5634 5624 5613 5600 5583 5569 5557 5548 5540 5533 5530 5526 5521 5517 5511 5508 5505 5496 5497 5512 5535 5551 5568 5595 5617
5683 5686 5686 5687 5688 5688 5686 5685 5683 5680 5676 5671 5665 5659 5653 5646 5639 5632 5623 5614 5602 5587 5572 5559 5547 5538 5530 5526 5524 5521 5517 5512 5509 5509 5503 5501 5503 5518 5539 5555 5574 5597 5614
5672 5673 5675 5676 5676 5676 5675 5674 5672 5669 5665 5660 5654 5648 5643 5636 5629 5621 5612 5602 5589 5573 5559 5549 5539 5528 5521 5520 5519 5517 5516 5511 5509 5510 5508 5509 5511 5528 5539 5557 5581 5599 5614
5660 5662 5663 5664 5664 5665 5665 5663 5660 5657 5653 5648 5643 5637 5632 5625 5618 5609 5600 5589 5576 5560 5546 5535 5526 5519 5511 5512 5513 5513 5513 5510 5510 5512 5513 5513 5521 5535 5548 5564 5581 5600 5614
5650 5651 5652 5653 5654 5654 5654 5652 5650 5646 5642 5637 5632 5627 5622 5616 5607 5599 5589 5577 5563 5547 5533 5520 5511 5503 5497 5502 5506 5508 5510 5510 5512 5514 5519 5524 5529 5539 5553 5569 5580 5597 5610
5637 5638 5640 5642 5643 5643 5643 5641 5638 5635 5631 5626 5622 5617 5612 5605 5596 5589 5578 5566 5551 5538 5523 5509 5496 5487 5488 5495 5500 5503 5506 5509 5510 5513 5521 5529 5535 5543 5556 5572 5582 5591 5610
5623 5626 5629 5631 5631 5632 5632 5630 5627 5625 5620 5616 5613 5608 5601 5593 5586 5578 5567 5554 5539 5528 5513 5500 5487 5481 5486 5492 5496 5499 5504 5509 5509 5513 5519 5530 5540 5548 5557 5569 5586 5596 5612
5610 5615 5617 5618 5620 5621 5620 5619 5617 5614 5610 5607 5603 5597 5590 5583 5577 5569 5557 5543 5529 5518 5505 5492 5484 5482 5486 5491 5494 5497 5501 5506 5511 5514 5518 5527 5534 5546 5558 5570 5581 5593 5606
5599 5602 5605 5608 5609 5609 5609 5608 5606 5603 5600 5597 5592 5586 5580 5574 5566 5558 5546 5533 5522 5510 5499 5488 5484 5485 5488 5490 5492 5494 5499 5504 5507 5513 5518 5525 5534 5546 5557 5568 5578 5591 5605
5586 5591 5594 5596 5598 5598 5597 5596 5594 5592 5590 5586 5581 5576 5571 5564 5557 5548 5536 5524 5514 5503 5493 5484 5482 5485 5488 5489 5491 5491 5496 5501 5506 5511 5518 5523 5529 5540 5553 5566 5578 5592 5608
5575 5579 5582 5584 5585 5586 5585 5584 5583 5582 5579 5575 5571 5567 5562 5554 5546 5538 5527 5516 5507 5497 5486 5480 5480 5483 5485 5487 5489 5492 5493 5498 5504 5509 5516 5524 5535 5544 5555 5566 5580 5595 5609
5564 5568 5570 5572 5574 5574 5574 5573 5572 5570 5567 5566 5562 5558 5552 5546 5537 5528 5517 5507 5498 5490 5480 5474 5475 5479 5482 5484 5485 5488 5489 5495 5501 5508 5516 5525 5535 5545 5556 5568 5582 5595 5607
5554 5557 5559 5562 5563 5563 5563 5562 5560 5559 5558 5556 5552 5548 5542 5536 5527 5518 5507 5498 5490 5482 5473 5468 5471 5475 5479 5482 5483 5485 5489 5493 5500 5508 5517 5524 5534 5544 5553 5565 5581 5594 5604
5543 5545 5548 5551 5551 5551 5551 5551 5549 5548 5547 5545 5543 5538 5532 5525 5517 5508 5499 5491 5483 5475 5468 5463 5466 5470 5474 5478 5481 5483 5487 5491 5499 5508 5515 5523 5531 5540 5549 5562 5578 5593 5603
5532 5535 5538 5540 5540 5541 5540 5540 5540 5539 5537 5535 5531 5527 5521 5514 5506 5498 5490 5483 5475 5468 5461 5458 5461 5465 5469 5474 5477 5480 5483 5489 5496 5505 5512 5520 5530 5539 5548 5562 5577 5590 5602
5522 5525 5527 5529 5530 5530 5530 5530 5530 5529 5529 5525 5520 5515 5509 5502 5494 5486 5479 5473 5466 5459 5453 5451 5454 5459 5464 5469 5473 5476 5482 5488 5497 5504 5513 5521 5530 5538 5548 5560 5577 5589 5601
5513 5515 5516 5519 5520 5520 5521 5521 5520 5520 5519 5516 5511 5505 5500 5492 5482 5475 5468 5461 5455 5448 5443 5443 5448 5454 5460 5465 5469 5474 5480 5486 5494 5503 5513 5518 5529 5537 5545 5557 5572 5584 5596
5502 5504 5506 5508 5509 5511 5511 5511 5510 5510 5509 5506 5501 5495 5489 5480 5472 5465 5458 5451 5444 5437 5433 5435 5442 5448 5455 5460 5465 5470 5476 5484 5492 5499 5509 5518 5527 5537 5546 5555 5568 5580 5592
5492 5494 5496 5497 5499 5501 5501 5501 5502 5501 5499 5495 5491 5484 5476 5470 5462 5455 5449 5441 5433 5426 5423 5427 5435 5444 5450 5455 5461 5467 5473 5480 5488 5496 5505 5514 5521 5532 5543 5554 5566 5577 5591
5483 5484 5486 5489 5491 5492 5492 5493 5493 5492 5488 5485 5480 5473 5465 5458 5452 5446 5439 5430 5423 5416 5414 5418 5428 5438 5446 5451 5458 5464 5470 5476 5483 5491 5500 5511 5520 5529 5542 5553 5564 5575 5589
5476 5478 5481 5482 5483 5483 5484 5485 5485 5482 5479 5474 5468 5461 5454 5446 5442 5435 5428 5419 5411 5404 5405 5410 5421 5431 5441 5448 5453 5459 5465 5472 5479 5487 5498 5509 5519 5528 5539 5551 5562 5573 5584
5470 5472 5473 5474 5475 5476 5477 5478 5477 5474 5470 5464 5456 5448 5442 5437 5431 5425 5416 5407 5398 5393 5396 5403 5415 5426 5436 5444 5448 5453 5461 5468 5476 5484 5494 5505 5515 5525 5534 5545 5556 5569 5577
Wind_Speed
38 40 39 39 39 39 40 41 42 44 45 45 47 46 49 50 54 56 59 60 63 67 75 82 80 64 62 60 44 44 48 48 46 44 42 35 34 44 70 94 79 90 90
40 41 40 39 39 40 41 41 43 45 44 44 46 47 50 51 53 56 59 60 63 68 77 82 73 58 58 54 40 43 43 47 38 40 39 35 24 46 71 86 85 91 85
40 41 40 39 38 40 41 42 44 44 43 44 46 48 48 51 53 56 59 61 65 71 78 81 66 55 55 48 38 39 42 31 41 33 35 38 20 51 84 91 62 95 86
43 40 40 39 40 40 41 42 44 43 42 44 45 46 47 50 53 57 59 61 66 73 79 76 58 57 54 45 35 36 37 32 32 25 30 25 22 59 89 72 62 89 86
43 40 40 40 40 40 41 43 43 42 41 43 45 45 48 51 54 56 58 62 67 76 81 67 58 60 49 37 31 32 30 28 16 21 17 22 32 66 86 82 57 79 82
45 41 41 41 40 40 41 42 42 41 42 42 44 46 49 51 53 56 58 63 70 78 78 63 60 51 45 32 27 28 27 17 15 15 15 12 43 67 69 75 75 72 76
46 43 42 41 40 41 41 42 41 42 42 43 44 47 47 51 54 55 59 64 71 81 74 64 60 45 45 26 25 23 13 13 6 5 12 26 51 79 60 74 70 73 66
47 44 43 41 41 42 40 41 41 42 42 43 45 45 47 50 53 56 61 67 75 80 71 66 55 48 44 21 21 18 15 15 3 13 11 36 61 55 54 70 56 65 69
46 45 44 43 42 40 41 41 41 41 42 42 43 43 47 49 53 57 63 69 76 74 69 63 59 55 29 20 20 17 17 11 11 11 12 43 60 53 72 79 76 59 79
45 46 45 42 41 40 41 40 42 41 42 41 41 43 46 49 53 56 63 73 72 68 64 61 61 30 19 19 16 16 15 14 10 8 14 36 58 53 70 69 68 62 67
49 48 43 41 42 41 41 41 41 40 40 39 40 43 45 47 52 56 66 73 69 63 61 61 48 13 22 17 16 18 15 12 11 15 15 37 54 54 69 66 66 56 64
46 42 41 43 42 42 42 42 40 39 38 37 39 41 44 47 53 56 68 73 63 60 57 54 30 18 18 15 13 23 20 16 15 21 18 35 48 61 70 80 60 58 54
43 42 44 43 42 43 43 43 39 38 38 38 37 39 42 47 51 56 68 68 56 58 52 45 15 17 15 15 14 26 24 20 21 22 30 35 42 62 63 74 65 63 55
44 43 43 43 44 44 42 43 38 37 37 37 37 39 42 46 51 58 70 61 54 55 48 38 14 17 15 15 13 27 26 24 20 28 37 32 38 64 66 66 68 66 60
42 43 45 45 43 40 43 39 36 36 36 34 36 39 42 46 52 59 66 53 52 54 45 31 17 18 14 14 14 17 32 25 23 28 37 30 45 55 70 69 65 64 64
43 46 44 42 42 42 41 37 33 34 33 31 35 39 43 45 51 63 60 50 50 53 44 26 21 21 16 13 13 14 32 30 24 24 27 28 33 49 57 64 62 62 64
46 44 47 47 41 35 37 34 32 33 30 33 34 38 41 44 52 63 54 46 48 51 40 22 24 23 17 13 12 19 29 32 29 24 32 40 41 41 58 58 67 71 66
49 48 44 38 34 33 34 33 31 31 30 33 35 37 41 44 52 62 52 44 47 51 34 20 27 26 19 15 13 22 30 31 29 30 32 35 38 41 54 64 65 73 66
47 41 38 36 35 33 32 32 30 30 29 31 34 37 41 46 53 61 50 43 44 48 33 20 30 27 22 17 15 21 35 31 30 29 38 32 43 45 50 65 70 72 67
38 38 37 37 34 32 32 31 29 27 28 30 32 38 43 49 55 57 45 43 43 44 32 23 34 30 24 19 18 22 24 37 34 29 37 36 49 54 47 61 73 69 66
34 36 36 37 35 34 30 26 27 24 27 30 33 37 44 52 56 51 44 45 45 44 30 26 38 32 27 22 23 24 30 40 40 35 34 43 54 49 49 58 62 66 66
39 38 35 35 36 31 26 27 21 22 26 31 33 40 48 54 53 45 43 45 45 44 25 28 42 35 29 26 27 25 29 46 43 43 36 37 49 47 42 63 63 62 66
35 36 36 33 30 25 26 20 19 22 28 30 36 43 51 55 49 43 43 45 44 41 22 31 46 38 32 28 30 30 30 43 39 42 42 42 34 38 40 57 62 62 66
31 29 27 26 23 24 17 15 20 24 27 31 37 46 53 50 45 42 43 44 46 35 23 36 49 41 36 31 35 39 37 40 38 39 44 45 42 42 39 47 66 60 65
23 24 22 20 22 20 14 17 22 24 28 34 41 49 50 45 41 41 42 44 44 28 24 41 50 43 38 35 37 44 39 36 31 40 47 48 46 41 53 54 54 60 64
20 17 15 21 18 14 14 19 23 27 31 37 46 47 42 39 40 41 41 45 37 22 26 44 51 45 40 36 35 46 48 46 46 45 42 49 49 48 50 55 59 62 61
Wind_Direction
262 266 270 272 273 276 280 284 289 294 297 296 298 300 301 300 303 306 310 310 313 315 319 321 322 313 317 315 300 300 303 307 306 307 311 293 267 222 197 192 186 194 196
263 265 266 269 271 274 278 283 289 294 297 297 299 300 302 302 305 308 309 311 316 318 320 321 321 312 317 313 296 301 305 305 301 306 311 314 267 210 190 190 195 191 195
264 264 266 268 272 274 278 284 290 296 296 298 300 301 302 304 307 309 311 314 318 320 321 322 319 313 316 311 295 302 309 307 306 303 310 308 256 198 181 181 182 191 193
263 263 266 270 271 275 279 285 292 297 297 299 301 302 303 305 307 310 313 317 321 321 322 324 317 316 315 307 295 302 312 307 304 293 317 293 221 190 180 176 162 185 189
262 262 268 271 274 275 280 286 293 296 298 299 302 303 304 306 308 311 315 319 322 321 323 321 316 318 313 302 295 304 309 304 281 315 337 297 200 180 183 185 171 183 186
257 264 268 272 273 276 281 287 293 297 298 300 305 305 304 306 309 312 318 320 321 323 323 320 317 316 314 298 299 306 310 271 283 312 286 244 191 176 174 188 187 184 185
259 263 267 269 273 276 280 287 292 297 297 299 306 306 305 307 309 314 318 321 321 324 323 319 318 313 311 286 292 300 287 259 253 268 262 193 188 177 169 161 183 186 185
257 262 264 268 270 274 280 286 292 297 297 300 303 303 305 307 310 316 320 321 321 323 322 318 316 311 307 260 273 279 232 263 303 171 196 186 182 180 175 175 169 179 192
258 258 260 265 268 274 279 287 292 295 299 300 301 302 304 307 314 318 322 320 323 322 321 318 318 312 289 235 248 258 252 256 174 155 181 189 180 171 182 178 167 185 191
254 255 258 263 267 272 279 286 292 295 297 300 300 301 303 311 316 322 322 326 324 323 321 321 319 306 233 216 241 236 230 248 185 144 168 183 189 191 169 185 191 185 191
252 255 260 262 266 272 281 285 291 293 297 299 299 301 305 314 317 321 325 327 324 325 324 325 324 268 197 209 233 228 209 212 200 156 151 190 189 196 184 175 182 192 185
252 255 257 260 265 272 279 284 287 292 296 296 298 302 309 314 318 322 325 328 325 328 328 328 324 191 191 208 227 225 202 194 199 176 148 183 184 182 190 182 187 181 180
252 251 255 259 265 272 277 284 283 288 295 294 299 304 310 314 321 324 329 327 325 329 328 328 301 192 196 210 229 215 201 190 182 202 200 187 185 192 191 195 196 191 186
245 249 253 261 266 272 280 280 279 288 292 295 300 303 309 314 320 325 327 326 323 330 327 326 268 204 209 208 217 214 201 191 175 188 192 186 176 185 192 193 193 195 194
244 250 258 263 267 274 280 273 281 289 290 295 297 302 306 314 318 324 326 323 322 328 325 320 250 216 221 215 213 220 217 188 178 179 184 184 180 181 189 194 190 192 190
254 260 263 268 273 275 273 272 281 287 289 291 294 300 307 316 321 325 325 321 320 328 324 310 237 222 222 219 230 224 193 182 176 187 198 197 190 190 194 200 193 190 187
249 255 260 268 271 269 267 274 285 282 287 288 293 301 308 320 325 323 321 319 320 327 320 298 227 225 225 214 226 204 195 179 171 181 198 201 191 190 195 188 190 187 188
251 255 271 267 267 268 272 280 281 282 286 288 295 305 313 322 321 327 320 319 322 324 316 282 222 225 226 222 220 207 188 169 166 186 200 199 205 195 185 181 187 188 192
256 267 266 271 272 268 276 280 276 279 282 288 299 309 314 321 317 323 318 318 321 321 311 263 220 224 222 222 215 203 194 176 174 186 209 197 185 174 174 180 185 192 192
263 269 273 274 273 270 275 274 277 279 280 291 304 312 319 319 318 320 316 317 318 318 302 247 217 220 219 219 214 204 192 168 171 191 203 199 183 183 184 181 188 195 196
267 268 265 267 273 275 272 272 276 274 286 297 307 314 319 317 316 316 315 316 319 319 299 235 212 214 213 212 208 198 184 181 173 186 197 185 185 189 182 182 183 192 191
270 270 267 269 274 268 264 270 269 281 291 301 312 315 316 315 317 315 313 315 320 317 288 223 207 211 209 210 206 213 188 187 182 178 188 186 186 186 192 188 191 188 191
267 267 268 267 262 258 264 265 277 288 295 307 314 316 315 316 314 311 311 315 321 313 271 214 202 203 207 210 206 200 199 182 181 192 195 192 191 186 179 191 185 188 192
272 266 260 255 253 261 257 270 283 291 301 312 316 316 317 314 310 308 313 317 320 305 249 206 200 198 202 210 202 194 191 180 187 195 195 195 202 189 185 183 191 187 191
264 261 252 254 260 258 262 277 287 296 304 316 313 316 316 311 306 310 314 319 315 292 233 201 197 197 200 204 205 193 182 188 184 193 190 191 193 193 177 186 187 195 198
253 248 258 255 253 251 268 283 290 298 312 318 316 316 312 306 309 314 318 319 310 268 220 196 195 195 199 205 199 196 191 189 188 194 195 197 194 194 183 184 186 195 203